This is the latest recevied weather packets stored in our database for station/object KN6ETB-1. If no packets are shown the sender has not sent any weather packets the latest 10 day(s).
| Time | Temp. | Humidity | Pressure | Rain* | Wind** | Luminosity | Snow |
|---|---|---|---|---|---|---|---|
| 1777562689 | 15.56° C | 73% | 1011.9 hPa | 0 mm | - | 274 W/m² | - |
| 1777562383 | 15.56° C | 73% | 1012 hPa | 0 mm | - | 247 W/m² | - |
| 1777562079 | 15.56° C | 74% | 1011.9 hPa | 0 mm | - | 225 W/m² | - |
| 1777561776 | 15.56° C | 75% | 1011.9 hPa | 0 mm | - | 198 W/m² | - |
| 1777561472 | 15° C | 75% | 1011.8 hPa | 0 mm | - | 193 W/m² | - |
| 1777561168 | 14.44° C | 76% | 1011.6 hPa | 0 mm | - | 177 W/m² | - |
| 1777560862 | 13.89° C | 77% | 1011.9 hPa | 0 mm | - | 161 W/m² | - |
| 1777560560 | 13.89° C | 78% | 1011.7 hPa | 0 mm | - | 141 W/m² | - |
| 1777560258 | 13.33° C | 79% | 1011.7 hPa | 0 mm | - | 137 W/m² | - |
| 1777559955 | 13.33° C | 80% | 1011.6 hPa | 0 mm | - | 114 W/m² | - |
| 1777559649 | 12.78° C | 82% | 1011.4 hPa | 0 mm | - | 105 W/m² | - |
| 1777559348 | 12.22° C | 84% | 1011.5 hPa | 0 mm | - | 94 W/m² | - |
| 1777559043 | 12.22° C | 85% | 1011.4 hPa | 0 mm | - | 80 W/m² | - |
| 1777558739 | 11.67° C | 85% | 1011.3 hPa | 0 mm | - | 72 W/m² | - |
| 1777558435 | 11.67° C | 86% | 1011.4 hPa | 0 mm | - | 61 W/m² | - |
| 1777558131 | 11.11° C | 87% | 1011.5 hPa | 0 mm | - | 55 W/m² | - |
| 1777557828 | 11.11° C | 87% | 1011.3 hPa | 0 mm | - | 46 W/m² | - |
| 1777557525 | 10.56° C | 88% | 1011.4 hPa | 0 mm | - | 39 W/m² | - |
| 1777557221 | 10.56° C | 88% | 1011.3 hPa | 0 mm | - | 33 W/m² | - |
| 1777556917 | 10.56° C | 88% | 1011 hPa | 0 mm | - | 23 W/m² | - |
| 1777556612 | 10.56° C | 89% | 1011.3 hPa | 0 mm | - | 20 W/m² | - |
| 1777556307 | 10.56° C | 89% | 1011.3 hPa | 0 mm | - | 17 W/m² | - |
| 1777556004 | 10.56° C | 89% | 1011.4 hPa | 0 mm | - | 14 W/m² | - |
| 1777555698 | 10.56° C | 89% | 1011.3 hPa | 0 mm | - | 11 W/m² | - |
| 1777555395 | 10.56° C | 88% | 1011.3 hPa | 0 mm | - | 7 W/m² | - |
* Rain latest hour (hover to see other rain measurements)
** Current wind speed in m/s (hover to see current wind gust speed)